Location: Bannatyne
(13.0833°N, 59.5333°W)
Time: 21:07:34
(UTC+00:00)

Cosmos 2285 Rocket - Pass Details

Date: 18 October 2019
Orbit: 970 x 999 km, 74.0° (Epoch: 18 November)

Event Time Altitude Azimuth Distance (km) Brightness Sun altitude
Rises 22:10:49 0° 349° (NNW) 3,702 7.1 -8.8°
Reaches altitude 10° 22:13:23 10° 350° (N) 2,750 6.4 -9.4°
Maximum altitude 22:19:46 80° 77° (ENE) 1,004 4.0 -11.0°
Drops below altitude 10° 22:26:06 10° 164° (SSE) 2,729 6.3 -12.5°
Sets 22:28:38 0° 165° (SSE) 3,672 6.9 -13.1°
